Weather in Šibenik

Croatia     43°44′27″N   15°53′45″E
temp.,
°C
wind,
m/s
gust,
m/s
humid.,
%
clouds,
%
prec.,
mm/h
press.,
hPa
HPBL,
m
14 may, fri
fri1423:00+13ese377954 0.3 1009308
02:00+11ene228379 0.4 100858
05:00+12nne1177100 0.0 100827
08:00+14e117062 0.1 1010212
11:00+17wsw34564 0.3 10111165
14:00+18wsw45515 0.3 10111257
17:00+18sw22455 0.0 10101072
20:00+15se3465100 0.0 101076
15 may, sat
sat1523:00+13ese51074100 0.1 1011348
02:00+13e3474100 0.1 101092
05:00+13ene3569100 0.0 1008134
08:00+14ne1371100 0.1 1010190
11:00+17se456099 0.2 10101113
14:00+17sse4568100 1.7 1010764
17:00+16s567452 2.2 1011863
20:00+13sse3590100 3.1 1011145
16 may, sun
sun1623:00+12se369483 0.4 1011204
02:00+13se4592100 1.8 1011130
05:00+14ese2283100 0.2 101039
08:00+14ese2383100 0.2 101184
11:00+15se3681100 0.1 1012377
14:00+17sse467498 0.1 1012640
17:00+16se4779100 0.1 1011374
20:00+15ese4880100 0.1 1010277
17 may, mon
mon1723:00+14ene1283100 0.1 101149
02:00+15ese4107799 0.2 1010349
05:00+15ese51072100 0.0 1009302
08:00+15se2677100 0.0 1010220
11:00+17se61073100 0.0 1010564
14:00+21sse6663100 0.0 1010887
17:00+20sse4566100 0.1 1009357
20:00+16se598733 0.8 1010207
18 may, tue
tue1823:00+15se248794 0.3 1011103
02:00+13nne119099 0.4 101116
05:00+14ne118494 1.3 101141
08:00+15wnw146978 1.3 1012417
11:00+18w485588 0.0 10121591
14:00+18w556518 0.8 10121081
17:00+18w33655 0.8 10121004
20:00+15nw3569100 0.8 101296